Location: Black Swamp Observatory
(41.3920°N, 84.1250°W)
Time: 23:49:37
(UTC-05:00)

NOAA 15 - Visible Passes

Search period start: 26 February 2024 00:00
Search period end: 07 March 2024 00:00
Orbit: 797 x 810 km, 98.6° (Epoch: 26 February)

Date Brightness Start Highest point End Pass type
(mag) Time Alt. Az. Time Alt. Az. Time Alt. Az.
26 Feb 4.7 19:01:04 10° SSE 19:06:11 55° ENE 19:11:21 10° N visible
26 Feb 7.2 20:42:39 10° SW 20:46:16 19° W 20:49:54 10° NW visible
27 Feb 6.4 20:15:45 10° SSW 20:20:25 32° W 20:25:07 10° NNW visible
28 Feb 5.4 19:49:30 10° S 19:54:40 54° W 19:59:52 10° NNW visible
29 Feb 4.6 19:23:43 10° SSE 19:29:00 88° ENE 19:34:19 10° NNW visible
29 Feb 7.7 21:08:06 10° WSW 21:09:26 11° W 21:10:46 10° WNW visible
01 Mar 4.8 18:58:21 10° SE 19:03:27 52° ENE 19:08:35 10° N visible
01 Mar 7.2 20:39:43 10° SW 20:43:29 20° W 20:47:16 10° NW visible
02 Mar 6.3 20:12:53 10° SSW 20:17:38 33° W 20:22:25 10° NNW visible
03 Mar 5.3 19:46:42 10° S 19:51:53 58° W 19:57:07 10° NNW visible
04 Mar 4.6 19:20:57 10° SSE 19:26:14 84° ENE 19:31:34 10° NNW visible
04 Mar 7.6 21:04:48 10° WSW 21:06:37 12° W 21:08:27 10° WNW visible
05 Mar 4.8 18:55:37 10° SE 19:00:41 49° ENE 19:05:47 10° N visible
05 Mar 7.1 20:36:46 10° SW 20:40:41 21° W 20:44:37 10° NW visible
06 Mar 6.2 20:10:02 10° SSW 20:14:51 35° W 20:19:42 10° NNW visible
